Regional Weather Roundup
Issued by NWS

Home | Current Version | Previous Version | Text Only | Print | Product List | Glossary Off
Versions: 1 2 3 4 5 6 7 8 9 10 11 12 13 14 15 16 17 18 19 20 21 22 23 24 25 26 27 28 29 30 31 32 33 34 35 36 37 38 39 40 41 42 43 44 45 46 47 48 49 50

000
ASUS43 KFSD 040302
RWRSD

WEATHER ROUNDUP FOR SOUTH DAKOTA
NATIONAL WEATHER SERVICE SIOUX FALLS SD
1000 PM CDT SUN MAY 03 2015

NOTE: "FAIR" INDICATES FEW OR NO CLOUDS BELOW 12,000 FEET WITH NO
SIGNIFICANT WEATHER AND/OR OBSTRUCTIONS TO VISIBILITY.


SDZ001>005-009-010-012>017-040400-
NORTHWEST AND NORTH CENTRAL SOUTH DAKOTA

CITY           SKY/WX    TMP DP  RH WIND       PRES   REMARKS
BUFFALO          N/A     52  34  50 SE6       30.02R
FAITH            N/A     56  24  29 E8        30.06R
MOBRIDGE       CLEAR     54  22  28 NE13      30.03R
$$

SDZ012>016-024>037-041>051-057-063-072>074-040400-
SOUTHWEST AND SOUTH CENTRAL SOUTH DAKOTA

CITY           SKY/WX    TMP DP  RH WIND       PRES   REMARKS
RAPID CTY ARPT PTCLDY    53  34  48 NE10      30.05R
PIERRE         PTCLDY    53  25  33 N9        30.03R
CUSTER         MOCLDY    48  32  53 E8        30.11R
ELLSWORTH AFB  PTCLDY    56  34  43 E7        30.06R
PHILIP         PTCLDY    53  29  39 NE7       30.04R
PINE RIDGE     MOCLDY    51  37  58 E5        30.05R
WINNER         FAIR      56  29  35 NE10      30.00R
$$

SDZ004>011-016>023-039-040-040400-
NORTHEAST SOUTH DAKOTA

CITY           SKY/WX    TMP DP  RH WIND       PRES   REMARKS
ABERDEEN       CLEAR     53  23  31 N9        30.01R
WATERTOWN      CLEAR     50  30  46 NW6       29.98R
BROOKINGS      CLEAR     55  30  38 N10       29.98R
SISSETON         N/A     51  26  37 NW9       29.97R
$$

SDZ017-020-022-023-036>040-048>070-040400-
SOUTHEAST SOUTH DAKOTA

CITY           SKY/WX    TMP DP  RH WIND       PRES   REMARKS
SIOUX FALLS    PTCLDY    62  35  36 N10       29.95R
HURON          CLEAR     54  28  36 N9        29.98R
MITCHELL       CLEAR     59  36  42 N10       29.97R
YANKTON        FAIR      61  39  44 N6        29.94R
$$

ABBREVIATIONS USED IN REMARKS
   TC - TEMPERATURE IN CELSIUS
  WCI - WIND CHILL INDEX
   HX - HEAT INDEX
  VSB - VISIBILITY



USA.gov is the U.S. government's official web portal to all federal, state and local government web resources and services.